This is the latest recevied weather packets stored in our database for station/object SM0PQB-13. If no packets are shown the sender has not sent any weather packets the latest 10 day(s).
| Time | Temp. | Humidity | Pressure | Rain* | Wind** | Luminosity | Snow |
|---|---|---|---|---|---|---|---|
| 1777976953 | 26.11° C | 29% | 1004.7 hPa | - | - | - | - |
| 1777976352 | 24.44° C | 32% | 1004.6 hPa | - | - | - | - |
| 1777975752 | 23.89° C | 33% | 1004.7 hPa | - | - | - | - |
| 1777975152 | 23.89° C | 33% | 1004.5 hPa | - | - | - | - |
| 1777974552 | 23.89° C | 34% | 1004.6 hPa | - | - | - | - |
| 1777973952 | 23.33° C | 33% | 1004.6 hPa | - | - | - | - |
| 1777973352 | 23.33° C | 34% | 1004.6 hPa | - | - | - | - |
| 1777972746 | 23.33° C | 34% | 1004.6 hPa | - | - | - | - |
| 1777971552 | 23.89° C | 40% | 1004.3 hPa | - | - | - | - |
| 1777970953 | 23.89° C | 40% | 1004.2 hPa | - | - | - | - |
| 1777970352 | 23.89° C | 40% | 1004.2 hPa | - | - | - | - |
| 1777969752 | 23.89° C | 41% | 1004.1 hPa | - | - | - | - |
| 1777969152 | 23.33° C | 42% | 1004 hPa | - | - | - | - |
| 1777968552 | 22.78° C | 41% | 1002.4 hPa | - | - | - | - |
| 1777967952 | 23.89° C | 42% | 1003.8 hPa | - | - | - | - |
| 1777967352 | 23.89° C | 42% | 1003.8 hPa | - | - | - | - |
| 1777966752 | 23.89° C | 42% | 1003.8 hPa | - | - | - | - |
| 1777966153 | 23.89° C | 42% | 1003.7 hPa | - | - | - | - |
| 1777965552 | 23.89° C | 42% | 1003.6 hPa | - | - | - | - |
| 1777964952 | 23.89° C | 42% | 1003.5 hPa | - | - | - | - |
| 1777964352 | 23.33° C | 39% | 1003.4 hPa | - | - | - | - |
| 1777964291 | 23.33° C | 39% | 1003.4 hPa | - | - | - | - |
| 1777964232 | 23.33° C | 39% | 1002.7 hPa | - | - | - | - |
| 1777964172 | 23.33° C | 40% | 1003.3 hPa | - | - | - | - |
| 1777964111 | 23.33° C | 40% | 1003.3 hPa | - | - | - | - |
* Rain since midnight (hover to see other rain measurements)
** Current wind speed in m/s (hover to see current wind gust speed)